Le nostre stazioni meteo in Italia

Pubblicità
Il mio iltempo24.it
Ponza, Italia (16280): Temperatura & dewpoint: 14.01.2018 06:00:00 - 20.01.2018 06:00:00 (CET)Ponza, Italia (16280): velocità del vento: 14.01.2018 06:00:00 - 20.01.2018 06:00:00 (CET)Ponza, Italia (16280): direzione del vento: 14.01.2018 06:00:00 - 20.01.2018 06:00:00 (CET)Ponza, Italia (16280): reduced air pressure: 14.01.2018 06:00:00 - 20.01.2018 06:00:00 (CET)Ponza, Italia (16280): visibility: 14.01.2018 06:00:00 - 20.01.2018 06:00:00 (CET)Ponza, Italia (16280): ore di luce: 14.01.2018 06:00:00 - 20.01.2018 06:00:00 (CET)
Data & Tempo tt [°C] td [°C] ff [km/h] ff [kn] dd ppp [hPa] vv [km] sd [min]
20.01.2018 06:00:00 - - - - - - - -
20.01.2018 05:00:00 12,2 10,9 16 9 SO 1009,5 10 -
20.01.2018 04:00:00 12,0 10,6 18 10 SO 1009,5 10 -
20.01.2018 03:00:00 12,0 10,1 16 9 OSO 1010,1 10 -
20.01.2018 02:00:00 12,0 10,4 16 9 O 1010,6 10 -
20.01.2018 01:00:00 11,8 10,0 21 11 O 1010,8 10 -
20.01.2018 00:00:00 11,8 10,9 21 11 OSO 1012,0 10 -
19.01.2018 23:00:00 12,8 10,9 13 7 SSO 1012,5 10 -
19.01.2018 22:00:00 12,6 11,0 18 10 SO 1012,5 10 -
19.01.2018 21:00:00 12,2 11,1 15 8 SSO 1012,5 10 -
19.01.2018 20:00:00 12,2 11,1 11 6 SSO 1012,5 10 -
19.01.2018 19:00:00 12,0 11,1 11 6 S 1012,5 10 -
19.01.2018 18:00:00 12,0 11,2 15 8 S 1012,5 10 -
19.01.2018 17:00:00 12,4 11,3 13 7 S 1012,5 10 0
19.01.2018 16:00:00 12,6 11,0 15 8 S 1012,5 10 18
19.01.2018 15:00:00 13,0 11,6 11 6 SSO 1012,7 10 18
19.01.2018 14:00:00 13,6 11,5 13 7 SSO 1012,9 10 30
19.01.2018 13:00:00 13,2 11,6 0 0 N 1013,8 15 -
19.01.2018 12:00:00 13,4 10,8 11 6 S 1014,8 15 0
19.01.2018 11:00:00 14,0 10,2 15 8 S 1014,8 10 12
19.01.2018 10:00:00 12,0 10,1 18 10 OSO 1015,1 10 0
19.01.2018 09:00:00 12,0 9,9 22 12 OSO 1015,8 10 0
19.01.2018 08:00:00 12,4 10,0 29 16 SSO 1015,4 10 0
19.01.2018 07:00:00 12,4 9,4 34 18 SSO 1015,8 10 -
19.01.2018 06:00:00 12,0 9,4 18 10 SSO 1016,9 10 -
19.01.2018 05:00:00 12,0 9,5 29 16 OSO 1017,0 10 -
19.01.2018 04:00:00 12,4 10,1 39 21 SSO 1017,2 10 -
19.01.2018 03:00:00 12,4 10,0 37 20 OSO 1017,3 10 -
19.01.2018 02:00:00 12,2 9,9 22 12 O 1017,5 10 -
19.01.2018 01:00:00 12,0 10,1 18 10 O 1017,7 10 -
19.01.2018 00:00:00 12,0 9,9 29 16 OSO 1017,7 10 -
18.01.2018 23:00:00 12,0 10,1 15 8 OSO 1017,8 10 -
18.01.2018 22:00:00 12,0 10,1 22 12 OSO 1017,9 10 -
18.01.2018 21:00:00 11,4 10,1 22 12 OSO 1018,4 10 -
18.01.2018 20:00:00 11,6 8,8 29 16 O 1018,3 10 -
18.01.2018 19:00:00 11,4 7,7 34 18 O 1018,5 10 -
18.01.2018 18:00:00 11,4 7,5 0 0 N 1018,6 10 -
18.01.2018 17:00:00 11,6 7,9 18 10 O 1018,7 10 -
18.01.2018 16:00:00 11,8 8,1 18 10 OSO 1018,5 10 0
18.01.2018 15:00:00 12,0 8,1 22 12 OSO 1019,1 20 30
18.01.2018 14:00:00 13,0 7,9 9 5 ONO 1019,1 30 24
18.01.2018 13:00:00 13,0 6,8 15 8 ONO 1019,4 30 36
18.01.2018 12:00:00 13,6 6,7 15 8 ONO 1020,1 40 36
18.01.2018 11:00:00 12,8 3,7 13 7 ONO 1020,2 40 60
18.01.2018 10:00:00 10,8 1,6 15 8 NO 1019,8 40 60
18.01.2018 09:00:00 10,4 0,4 16 9 ONO 1019,4 30 60
18.01.2018 08:00:00 10,2 0,2 21 11 ONO 1017,5 30 0
18.01.2018 07:00:00 10,0 -0,5 26 14 ONO 1017,6 30 -
18.01.2018 06:00:00 11,0 1,0 28 15 ONO 1017,4 15 -
18.01.2018 05:00:00 11,0 1,0 29 16 ONO 1017,3 15 -
18.01.2018 04:00:00 11,2 0,9 29 16 ONO 1016,2 15 -
18.01.2018 03:00:00 11,6 1,5 37 20 ONO 1016,2 10 -
18.01.2018 02:00:00 11,8 1,4 35 19 ONO 1015,7 10 -
18.01.2018 01:00:00 12,0 3,3 42 23 ONO 1015,2 10 -
18.01.2018 00:00:00 12,2 3,7 41 22 ONO 1014,1 10 -
17.01.2018 23:00:00 12,4 3,6 37 20 ONO 1013,1 10 -
17.01.2018 22:00:00 12,6 5,5 42 23 NO 1012,1 10 -
17.01.2018 21:00:00 13,0 5,7 41 22 ONO 1010,3 10 -
17.01.2018 20:00:00 13,0 5,9 63 34 ONO 1007,2 10 -
17.01.2018 19:00:00 13,0 5,9 59 32 ONO 1005,9 10 -
17.01.2018 18:00:00 13,0 5,9 57 31 ONO 1005,2 10 -
17.01.2018 17:00:00 13,4 6,3 55 30 ONO 1004,9 8 0
17.01.2018 16:00:00 13,0 7,2 57 31 ONO 1001,9 8 36
17.01.2018 15:00:00 12,8 8,7 59 32 O 1001,8 8 0
17.01.2018 14:00:00 14,6 10,2 52 28 O 1001,7 7 60
17.01.2018 13:00:00 14,6 10,8 55 30 O 1001,7 8 60
17.01.2018 12:00:00 14,6 11,0 54 29 O 1002,4 10 60
17.01.2018 11:00:00 14,4 11,4 46 25 O 1002,7 10 60
17.01.2018 10:00:00 14,4 11,7 44 24 O 1003,8 10 60
17.01.2018 09:00:00 14,4 11,7 48 26 O 1004,3 10 36
17.01.2018 08:00:00 14,0 11,2 46 25 O 1004,8 10 0
17.01.2018 07:00:00 14,0 11,2 48 26 O 1004,8 10 -
17.01.2018 06:00:00 13,6 10,2 46 25 SO 1005,4 10 -
17.01.2018 05:00:00 13,4 10,9 44 24 SO 1006,9 10 -
17.01.2018 04:00:00 13,0 11,1 41 22 SO 1008,9 10 -
17.01.2018 03:00:00 13,0 9,6 42 23 SO 1009,9 10 -
17.01.2018 02:00:00 13,0 10,0 41 22 OSO 1010,0 10 -
17.01.2018 01:00:00 13,0 10,9 39 21 SO 1010,9 10 -
17.01.2018 00:00:00 13,0 10,7 35 19 OSO 1011,0 10 -
16.01.2018 23:00:00 13,0 10,9 35 19 OSO 1012,0 10 -
16.01.2018 22:00:00 13,0 11,2 35 19 O 1012,0 10 -
16.01.2018 21:00:00 13,0 11,4 35 19 O 1012,7 10 -
16.01.2018 20:00:00 13,2 12,1 39 21 O 1013,0 10 -
16.01.2018 19:00:00 13,2 11,6 39 21 O 1013,0 10 -
16.01.2018 18:00:00 13,0 12,2 37 20 O 1013,4 10 -
16.01.2018 17:00:00 12,8 11,5 39 21 O 1014,1 10 0
16.01.2018 16:00:00 12,8 11,5 37 20 O 1014,7 10 0
16.01.2018 15:00:00 13,0 11,4 37 20 ONO 1014,8 10 0
16.01.2018 14:00:00 12,8 11,2 35 19 ONO 1015,1 10 0
16.01.2018 13:00:00 12,8 11,0 35 19 O 1016,1 10 0
16.01.2018 12:00:00 13,0 9,4 37 20 ONO 1016,6 10 0
16.01.2018 11:00:00 12,8 10,2 35 19 O 1017,9 15 0
16.01.2018 10:00:00 12,4 8,5 34 18 O 1017,6 15 0
16.01.2018 09:00:00 11,4 8,4 34 18 O 1017,4 10 12
16.01.2018 08:00:00 11,4 8,4 34 18 O 1017,3 15 12
16.01.2018 07:00:00 11,4 9,0 31 17 O 1017,2 10 -
16.01.2018 06:00:00 11,4 9,0 28 15 O 1017,5 15 -
16.01.2018 05:00:00 11,2 9,1 29 16 O 1018,3 15 -
16.01.2018 04:00:00 11,8 9,4 26 14 O 1019,2 10 -
16.01.2018 03:00:00 11,8 9,4 22 12 O 1019,9 20 -
16.01.2018 02:00:00 - - - - - - - -
16.01.2018 01:00:00 12,0 10,4 21 11 O 1021,3 15 -
16.01.2018 00:00:00 12,0 10,4 21 11 O 1021,3 15 -
15.01.2018 23:00:00 11,8 9,9 21 11 O 1021,3 15 -
15.01.2018 22:00:00 12,0 10,6 15 8 SSO 1021,0 15 -
15.01.2018 21:00:00 11,8 10,2 15 8 SSO 1021,2 20 -
15.01.2018 20:00:00 11,6 10,0 15 8 SSO 1021,2 20 -
15.01.2018 19:00:00 11,8 10,2 16 9 SSO 1020,7 20 -
15.01.2018 18:00:00 12,0 10,4 21 11 S 1020,4 15 -
15.01.2018 17:00:00 12,2 10,4 18 10 SSE 1020,2 20 0
15.01.2018 16:00:00 12,8 10,5 21 11 SSE 1020,2 20 60
15.01.2018 15:00:00 13,0 10,5 16 9 S 1020,4 25 60
15.01.2018 14:00:00 13,8 11,3 18 10 ESE 1020,8 15 60
15.01.2018 13:00:00 12,8 11,0 8 4 E 1021,3 10 60
15.01.2018 12:00:00 12,6 10,7 15 8 E 1021,4 10 60
15.01.2018 11:00:00 12,2 10,6 15 8 E 1022,1 10 60
15.01.2018 10:00:00 12,2 10,9 16 9 E 1021,4 10 54
15.01.2018 09:00:00 11,4 10,0 15 8 E 1020,8 10 30
15.01.2018 08:00:00 10,0 8,9 13 7 E 1020,6 10 0
15.01.2018 07:00:00 9,8 8,6 8 4 E 1020,5 10 -
15.01.2018 06:00:00 9,8 8,7 11 6 ESE 1020,3 10 -
15.01.2018 05:00:00 9,8 8,6 11 6 E 1020,5 10 -
15.01.2018 04:00:00 9,8 7,9 9 5 ESE 1020,8 10 -
15.01.2018 03:00:00 9,6 7,7 8 4 E 1021,0 10 -
15.01.2018 02:00:00 9,6 8,4 8 4 E 1021,3 10 -
15.01.2018 01:00:00 9,8 9,0 9 5 SO 1021,5 4,0 -
15.01.2018 00:00:00 11,4 9,3 11 6 E 1021,3 15 -
14.01.2018 23:00:00 11,0 8,6 8 4 O 1021,0 15 -
14.01.2018 22:00:00 10,6 7,3 8 4 O 1020,3 10 -
14.01.2018 21:00:00 10,4 7,1 9 5 O 1020,3 15 -
14.01.2018 20:00:00 10,6 6,9 5 3 O 1020,5 15 -
14.01.2018 19:00:00 10,4 6,9 8 4 O 1020,2 15 -
14.01.2018 18:00:00 10,4 6,7 5 3 O 1019,6 15 -
14.01.2018 17:00:00 11,0 6,5 8 4 O 1019,3 10 36
14.01.2018 16:00:00 11,8 7,9 8 4 O 1019,1 20 60
14.01.2018 15:00:00 12,0 7,7 11 6 O 1018,5 20 60
14.01.2018 14:00:00 12,0 7,5 11 6 ONO 1018,7 25 60
14.01.2018 13:00:00 11,6 7,5 9 5 ONO 1018,9 30 60
14.01.2018 12:00:00 11,2 7,1 0 0 N 1019,3 30 54
14.01.2018 11:00:00 10,6 6,5 5 3 ONO 1019,4 30 18
14.01.2018 10:00:00 10,4 6,7 4 2 N 1018,7 20 12
14.01.2018 09:00:00 10,0 6,9 9 5 NNO 1018,3 20 0
14.01.2018 08:00:00 10,2 8,3 11 6 ONO 1017,4 20 0
14.01.2018 07:00:00 10,2 8,5 15 8 ONO 1017,4 30 -
14.01.2018 06:00:00 10,6 8,5 11 6 O 1017,1 40 -

tt = Temperatura
td = dewpoint
ff = velocità del vento
dd = direzione del vento
ppp = reduced air pressure
vv = visibility
sd = ore di luce

Stazioni seguenti

WeatherPro
AMSI
MeteoEarth